EW9322 Weather Reports


Display with metric or nautical units.
time (UTC)temp
F
wind
direction
speed
MPH
gust
MPH
rain 1hr
in
rain 24hr
in
rain mn
in
humidity
%
barometer
mb
20260906211652 95 102 4.0 11.0 0.00 0.03 0.00 31 1018.3
20260906211152 95 194 4.0 12.0 0.00 0.03 0.00 31 1018.4
20260906210652 95 130 5.0 12.0 0.00 0.03 0.00 32 1018.6
20260906210152 95 165 4.0 12.0 0.00 0.03 0.00 32 1018.7
20260906205652 95 113 5.0 11.0 0.00 0.03 0.00 33 1018.8
20260906205152 94 127 5.0 11.0 0.00 0.03 0.00 32 1018.8
20260906204652 95 59 5.0 15.0 0.00 0.03 0.00 33 1018.8
20260906204154 95 163 3.0 15.0 0.00 0.03 0.00 32 1018.9
20260906204150 96 180 3.0 8.0 0.00 0.03 0.00 32 1018.9
20260906203155 95 179 4.0 11.0 0.00 0.03 0.00 32 1019.0
20260906203149 95 184 5.0 11.0 0.00 0.03 0.00 32 1018.9
20260906202648 96 169 3.0 11.0 0.00 0.03 0.00 32 1019.0
20260906201653 94 175 4.0 11.0 0.00 0.03 0.00 32 1019.1
20260906201647 95 70 3.0 10.0 0.00 0.03 0.00 32 1019.0
20260906201146 95 163 4.0 11.0 0.00 0.03 0.00 32 1019.1
20260906200146 95 182 4.0 12.0 0.00 0.03 0.00 33 1019.2
20260906195645 94 130 5.0 16.0 0.00 0.03 0.00 33 1019.1
20260906195146 94 88 4.0 16.0 0.00 0.03 0.00 33 1019.2
20260906194645 94 219 4.0 14.0 0.00 0.03 0.00 34 1019.2
20260906194143 94 182 4.0 14.0 0.00 0.03 0.00 34 1019.3
20260906193649 94 206 3.0 9.0 0.00 0.03 0.00 35 1019.6
20260906193645 94 112 5.0 14.0 0.00 0.03 0.00 34 1019.4
20260906193144 94 162 4.0 12.0 0.00 0.03 0.00 34 1019.4
20260906192144 94 246 3.0 11.0 0.00 0.03 0.00 35 1019.7
20260906191644 93 113 4.0 13.0 0.00 0.03 0.00 37 1019.7
20260906191144 93 190 5.0 13.0 0.00 0.03 0.00 37 1019.9
20260906190647 93 180 5.0 13.0 0.00 0.03 0.00 36 1019.9
20260906190642 93 178 4.0 12.0 0.00 0.03 0.00 37 1020.0
20260906185642 93 178 4.0 12.0 0.00 0.03 0.00 36 1020.0
20260906185141 93 202 3.0 11.0 0.00 0.03 0.00 37 1020.1
20260906184639 93 178 3.0 10.0 0.00 0.03 0.00 36 1020.1
20260906184139 92 78 4.0 12.0 0.00 0.03 0.00 37 1020.2
20260906183641 92 165 4.0 12.0 0.00 0.03 0.00 37 1020.3
20260906183145 92 161 4.0 11.0 0.00 0.03 0.00 38 1020.5
20260906183139 92 140 4.0 11.0 0.00 0.03 0.00 39 1020.5
20260906182144 92 133 4.0 11.0 0.00 0.03 0.00 38 1020.6
20260906182139 92 163 4.0 11.0 0.00 0.03 0.00 37 1020.6
20260906181138 92 138 3.0 10.0 0.00 0.03 0.00 38 1020.6
20260906180638 92 119 4.0 11.0 0.00 0.03 0.00 39 1020.8
20260906180137 91 145 4.0 11.0 0.00 0.03 0.00 39 1020.8
20260906175637 91 148 4.0 14.0 0.00 0.03 0.00 40 1020.9
20260906175139 91 166 5.0 14.0 0.00 0.03 0.00 40 1021.0
20260906174636 91 130 5.0 19.0 0.00 0.03 0.00 40 1021.1
20260906174136 91 98 5.0 19.0 0.00 0.03 0.00 40 1021.1
20260906173635 91 215 5.0 13.0 0.00 0.03 0.00 40 1021.0
20260906173138 90 165 5.0 17.0 0.00 0.03 0.00 41 1021.1
20260906173134 90 168 5.0 17.0 0.00 0.03 0.00 41 1021.2
20260906172138 90 142 4.0 12.0 0.00 0.03 0.00 41 1021.2
20260906172132 90 147 4.0 12.0 0.00 0.03 0.00 42 1021.2
20260906171136 90 169 4.0 12.0 0.00 0.03 0.00 44 1021.2
20260906171131 90 264 4.0 11.0 0.00 0.03 0.00 43 1021.3
20260906170131 89 117 3.0 11.0 0.00 0.03 0.00 45 1021.2
20260906165630 89 169 4.0 15.0 0.00 0.03 0.00 45 1021.3
20260906165129 88 161 4.0 15.0 0.00 0.03 0.00 46 1021.3
20260906164631 88 208 2.0 10.0 0.00 0.03 0.00 48 1021.3
20260906164131 88 159 2.0 9.0 0.00 0.03 0.00 50 1021.5
20260906163628 88 110 2.0 7.0 0.00 0.03 0.00 50 1021.5
20260906163126 87 101 2.0 7.0 0.00 0.03 0.00 51 1021.3
20260906162630 86 166 4.0 11.0 0.00 0.03 0.00 53 1021.3
20260906162626 86 183 3.0 7.0 0.00 0.03 0.00 52 1021.3
20260906161631 85 180 3.0 8.0 0.00 0.03 0.00 55 1021.5
20260906161627 85 161 4.0 11.0 0.00 0.03 0.00 53 1021.3
20260906160631 83 202 2.0 7.0 0.00 0.03 0.00 59 1021.5
20260906160626 84 136 4.0 12.0 0.00 0.03 0.00 55 1021.5
20260906160125 83 149 3.0 12.0 0.00 0.03 0.00 57 1021.5
20260906155125 83 145 2.0 5.0 0.00 0.03 0.00 60 1021.5
20260906154627 82 158 1.0 5.0 0.00 0.03 0.00 61 1021.5
20260906154127 82 200 1.0 8.0 0.00 0.03 0.00 61 1021.5
20260906153625 81 118 2.0 9.0 0.00 0.03 0.00 60 1021.5
20260906153125 82 244 3.0 9.0 0.00 0.03 0.00 59 1021.3
20260906152626 82 164 2.0 10.0 0.00 0.03 0.00 59 1021.3
20260906152125 81 162 2.0 10.0 0.00 0.03 0.00 60 1021.3
20260906151625 81 234 2.0 8.0 0.00 0.03 0.00 62 1021.3
20260906151125 80 178 2.0 8.0 0.00 0.03 0.00 62 1021.2
20260906150737 79 204 3.0 7.0 0.00 0.03 0.00 64 1021.2
20260906150625 80 170 2.0 7.0 0.00 0.03 0.00 62 1021.2
20260906150129 80 215 2.0 7.0 0.00 0.03 0.00 64 1021.2
20260906150125 80 207 2.0 7.0 0.00 0.03 0.00 64 1021.2
20260906144623 79 199 3.0 8.0 0.00 0.03 0.00 63 1021.2
20260906144121 78 128 2.0 8.0 0.00 0.03 0.00 64 1021.2
20260906143622 78 164 2.0 6.0 0.00 0.03 0.00 64 1021.2
20260906143122 77 157 2.0 6.0 0.00 0.03 0.00 64 1021.1
20260906142617 77 165 2.0 7.0 0.00 0.03 0.00 65 1021.1
20260906142117 77 182 2.0 7.0 0.00 0.03 0.00 65 1021.1
20260906141615 76 310 1.0 7.0 0.00 0.03 0.00 65 1021.0
20260906141119 76 160 2.0 8.0 0.00 0.03 0.00 65 1021.0
20260906141115 76 211 1.0 6.0 0.00 0.03 0.00 65 1021.0
20260906140111 75 185 3.0 8.0 0.00 0.03 0.00 66 1020.9
20260906135615 74 189 3.0 8.0 0.00 0.03 0.00 67 1020.9
20260906135610 75 121 3.0 8.0 0.00 0.03 0.00 66 1020.8
20260906134610 74 153 3.0 8.0 0.00 0.03 0.00 68 1020.8
20260906134109 73 152 2.0 7.0 0.00 0.03 0.00 68 1020.8
20260906133610 73 184 2.0 5.0 0.00 0.03 0.00 69 1020.8
20260906133110 73 174 2.0 5.0 0.00 0.03 0.00 69 1020.8
20260906132610 72 163 2.0 5.0 0.00 0.03 0.00 68 1020.7
20260906132109 72 219 1.0 5.0 0.00 0.03 0.00 68 1020.6
20260906131613 72 177 1.0 4.0 0.00 0.03 0.00 68 1020.5
20260906131608 72 171 1.0 5.0 0.00 0.03 0.00 68 1020.5
20260906130610 72 165 2.0 7.0 0.00 0.03 0.00 68 1020.5
20260906130113 72 186 2.0 7.0 0.00 0.03 0.00 68 1020.3
20260906130109 72 170 3.0 7.0 0.00 0.03 0.00 68 1020.2
20260906125711 72 144 2.0 7.0 0.00 0.03 0.00 68 1020.2
20260906124607 72 158 2.0 7.0 0.00 0.03 0.00 67 1020.2
20260906124107 72 132 2.0 7.0 0.00 0.03 0.00 67 1020.2
20260906123607 73 158 2.0 8.0 0.00 0.03 0.00 66 1020.2
20260906123106 73 171 2.0 9.0 0.00 0.03 0.00 66 1020.1
20260906122607 73 166 3.0 11.0 0.00 0.03 0.00 66 1020.1
20260906122108 73 174 3.0 11.0 0.00 0.03 0.00 65 1020.1
20260906121612 73 152 3.0 8.0 0.00 0.03 0.00 64 1020.0
20260906121608 73 133 2.0 7.0 0.00 0.03 0.00 65 1020.0
20260906120607 74 167 3.0 9.0 0.00 0.03 0.00 64 1020.0
20260906120112 74 195 3.0 10.0 0.00 0.03 0.00 63 1019.9
20260906120108 74 170 3.0 9.0 0.00 0.03 0.00 63 1019.9
20260906115107 74 194 2.0 10.0 0.00 0.03 0.00 62 1019.9
20260906114719 75 153 2.0 9.0 0.00 0.03 0.00 61 1019.7
20260906114611 75 159 2.0 9.0 0.00 0.03 0.00 61 1019.8
20260906114606 74 100 2.0 7.0 0.00 0.03 0.00 62 1019.8
20260906113105 75 180 2.0 7.0 0.00 0.03 0.00 61 1019.7
20260906112606 75 130 2.0 7.0 0.00 0.03 0.00 62 1019.6
20260906112110 75 165 3.0 9.0 0.00 0.03 0.00 62 1019.4
20260906112105 75 183 3.0 8.0 0.00 0.03 0.00 62 1019.6
20260906111105 75 172 2.0 9.0 0.00 0.03 0.00 61 1019.4
20260906110605 76 169 2.0 7.0 0.00 0.03 0.00 61 1019.4
20260906110110 76 153 3.0 8.0 0.00 0.03 0.00 59 1019.6
20260906110105 76 148 2.0 6.0 0.00 0.03 0.00 60 1019.6
20260906105717 76 162 3.0 8.0 0.00 0.03 0.00 59 1019.6
20260906104605 76 167 2.0 7.0 0.00 0.03 0.00 59 1019.6
20260906104106 76 175 2.0 7.0 0.00 0.03 0.00 59 1019.6
20260906103605 76 194 2.0 7.0 0.00 0.03 0.00 59 1019.6
20260906103105 76 157 2.0 6.0 0.00 0.03 0.00 59 1019.6
20260906102605 76 166 1.0 6.0 0.00 0.03 0.00 60 1019.6
20260906102105 76 162 1.0 5.0 0.00 0.03 0.00 60 1019.6
20260906101604 76 192 1.0 3.0 0.00 0.03 0.00 60 1019.4
20260906101104 76 147 1.0 4.0 0.00 0.03 0.00 61 1019.4
20260906100603 76 147 1.0 4.0 0.00 0.03 0.00 61 1019.4
20260906095603 75 137 0.0 2.0 0.00 0.03 0.00 62 1019.3
20260906095104 75 109 0.0 1.0 0.00 0.03 0.00 63 1019.4
20260906094603 75 109 0.0 2.0 0.00 0.03 0.00 62 1019.4
20260906094104 75 177 0.0 2.0 0.00 0.03 0.00 64 1019.4
20260906093607 75 113 0.0 3.0 0.00 0.03 0.00 65 1019.4
20260906093603 75 113 0.0 3.0 0.00 0.03 0.00 65 1019.4
20260906092605 75 101 1.0 4.0 0.00 0.03 0.00 65 1019.4
20260906092601 75 101 0.0 3.0 0.00 0.03 0.00 65 1019.4
20260906091602 75 101 1.0 4.0 0.00 0.03 0.00 65 1019.4
20260906091101 75 161 0.0 2.0 0.00 0.03 0.00 65 1019.4
20260906090608 75 161 0.0 2.0 0.00 0.03 0.00 66 1019.3
20260906090601 75 161 0.0 2.0 0.00 0.03 0.00 64 1019.4
20260906090101 75 161 1.0 4.0 0.00 0.03 0.00 65 1019.4
20260906085717 75 161 0.0 0.0 0.00 0.03 0.00 67 1019.3
20260906085601 75 161 0.0 4.0 0.00 0.03 0.00 65 1019.3
20260906084059 75 161 0.0 1.0 0.00 0.03 0.00 67 1019.3
20260906083604 75 161 0.0 0.0 0.00 0.03 0.00 68 1019.4
20260906083600 75 161 0.0 1.0 0.00 0.03 0.00 67 1019.4
20260906082600 75 161 0.0 1.0 0.00 0.03 0.00 67 1019.4
20260906082100 75 161 0.0 1.0 0.00 0.03 0.00 67 1019.6
20260906081559 75 161 0.0 1.0 0.00 0.03 0.00 67 1019.6
20260906081100 75 161 0.0 0.0 0.00 0.03 0.00 67 1019.6
20260906080559 75 161 0.0 1.0 0.00 0.03 0.00 67 1019.7
20260906080058 76 161 0.0 1.0 0.00 0.03 0.00 66 1019.7
20260906075556 76 161 0.0 0.0 0.00 0.03 0.00 65 1019.8
20260906075103 76 161 0.0 4.0 0.00 0.03 0.00 64 1019.9
20260906075058 76 161 0.0 0.0 0.00 0.03 0.00 65 1019.8
20260906074557 76 161 0.0 1.0 0.00 0.03 0.00 65 1019.8
20260906073556 76 161 1.0 5.0 0.00 0.03 0.00 64 1019.9
20260906073058 76 167 1.0 5.0 0.00 0.03 0.00 64 1019.9
20260906072556 76 169 1.0 5.0 0.00 0.03 0.00 63 1019.9
20260906072057 77 166 1.0 5.0 0.00 0.03 0.00 63 1019.8
20260906071559 77 161 2.0 9.0 0.00 0.03 0.00 62 1019.8
20260906071554 77 176 1.0 9.0 0.00 0.03 0.00 62 1019.8
20260906070600 78 139 2.0 7.0 0.00 0.03 0.00 59 1019.7
20260906070553 77 152 2.0 6.0 0.00 0.03 0.00 61 1019.8
20260906070053 78 175 2.0 6.0 0.00 0.03 0.00 60 1019.8
20260906065056 78 169 3.0 8.0 0.00 0.03 0.00 59 1019.8
20260906065052 78 190 2.0 8.0 0.00 0.03 0.00 59 1019.8
20260906064703 78 168 3.0 7.0 0.00 0.03 0.00 59 1019.7
20260906063554 79 132 2.0 8.0 0.00 0.03 0.00 58 1019.8
20260906063550 78 174 2.0 8.0 0.00 0.03 0.00 58 1019.8
20260906062548 79 184 3.0 7.0 0.00 0.03 0.00 57 1019.8
20260906062046 79 159 3.0 10.0 0.00 0.03 0.00 57 1019.7
20260906061552 79 157 3.0 9.0 0.00 0.03 0.00 58 1019.8
20260906061547 79 137 3.0 10.0 0.00 0.03 0.00 57 1019.8
20260906060547 79 144 3.0 9.0 0.00 0.03 0.00 58 1019.8
20260906060049 79 136 2.0 8.0 0.00 0.03 0.00 58 1019.7
20260906055547 79 161 2.0 8.0 0.00 0.03 0.00 59 1019.8
20260906055047 79 155 2.0 6.0 0.00 0.03 0.00 59 1019.8
20260906054545 79 132 2.0 8.0 0.00 0.03 0.00 59 1019.8
20260906054050 78 210 3.0 9.0 0.00 0.03 0.00 62 1019.8
20260906054046 79 194 3.0 9.0 0.00 0.03 0.00 60 1019.8
20260906053045 78 123 2.0 7.0 0.00 0.03 0.00 64 1019.8
20260906052545 77 165 1.0 6.0 0.00 0.03 0.00 66 1019.7
20260906052045 78 165 0.0 4.0 0.00 0.03 0.00 67 1019.8
20260906051545 78 141 0.0 4.0 0.00 0.03 0.00 66 1019.8
20260906051050 78 150 0.0 5.0 0.00 0.03 0.00 64 1019.8
20260906051045 78 150 0.0 1.0 0.00 0.03 0.00 66 1019.8
20260906050051 78 150 0.0 5.0 0.00 0.03 0.03 63 1020.0
20260906050047 79 150 0.0 5.0 0.00 0.03 0.00 63 1019.8
20260906045044 78 169 0.0 5.0 0.00 0.03 0.03 63 1019.9
20260906044548 78 142 1.0 4.0 0.00 0.03 0.03 63 1019.8
20260906044544 78 115 0.0 3.0 0.00 0.03 0.03 63 1019.9
20260906043543 78 171 1.0 4.0 0.00 0.03 0.03 62 1019.9
20260906043043 79 168 1.0 4.0 0.00 0.03 0.03 63 1020.0
20260906042543 79 170 2.0 5.0 0.00 0.03 0.03 62 1020.0
20260906042041 79 153 2.0 5.0 0.00 0.03 0.03 60 1020.1
20260906041541 79 175 2.0 5.0 0.00 0.03 0.03 59 1020.1
20260906041040 79 182 2.0 7.0 0.00 0.03 0.03 61 1020.1
20260906040540 79 155 2.0 7.0 0.00 0.03 0.03 60 1020.1
20260906040040 79 188 2.0 8.0 0.01 0.03 0.03 61 1020.2
20260906035544 78 147 2.0 7.0 0.02 0.03 0.03 64 1020.2
20260906035541 78 169 2.0 8.0 0.01 0.03 0.03 62 1020.2
20260906034538 77 177 2.0 7.0 0.03 0.03 0.03 64 1020.2
20260906034037 77 121 3.0 9.0 0.03 0.03 0.03 65 1020.1
20260906033537 77 136 3.0 9.0 0.03 0.03 0.03 66 1020.0
20260906033036 76 165 4.0 12.0 0.03 0.03 0.03 67 1019.9
20260906032532 76 157 5.0 12.0 0.03 0.03 0.03 68 1020.0
20260906032031 75 171 6.0 15.0 0.03 0.03 0.03 70 1020.1
20260906031534 73 182 6.0 14.0 0.03 0.03 0.03 74 1020.0
20260906031530 74 152 5.0 15.0 0.03 0.03 0.03 72 1020.2
20260906030531 73 152 6.0 18.0 0.03 0.03 0.03 75 1020.2
20260906030028 73 150 6.0 18.0 0.02 0.02 0.02 74 1020.2
20260906025528 75 243 6.0 17.0 0.02 0.02 0.02 71 1019.9
20260906025029 77 168 7.0 16.0 0.01 0.01 0.01 67 1019.7
20260906024529 76 102 8.0 19.0 0.00 0.00 0.00 63 1019.2
20260906024029 76 180 7.0 19.0 0.00 0.00 0.00 62 1019.3
20260906023529 76 103 6.0 17.0 0.00 0.00 0.00 63 1019.7
20260906023028 76 124 9.0 22.0 0.00 0.00 0.00 63 1019.7
20260906022528 78 140 10.0 23.0 0.00 0.00 0.00 60 1019.4
20260906022029 79 92 11.0 24.0 0.00 0.00 0.00 58 1018.8
20260906021533 82 142 8.0 19.0 0.00 0.00 0.00 55 1018.2
20260906021528 80 169 9.0 24.0 0.00 0.00 0.00 58 1018.3
20260906020535 83 187 5.0 17.0 0.00 0.00 0.00 49 1018.2
20260906020528 82 173 9.0 19.0 0.00 0.00 0.00 53 1018.2
20260906020029 82 203 7.0 19.0 0.00 0.00 0.00 54 1018.3
20260906015033 88 186 3.0 14.0 0.00 0.00 0.00 41 1017.7
20260906015028 85 192 4.0 12.0 0.00 0.00 0.00 46 1018.0
20260906014529 87 180 3.0 14.0 0.00 0.00 0.00 41 1018.0
20260906013533 90 175 1.0 11.0 0.00 0.00 0.00 38 1017.7
20260906013528 89 215 2.0 11.0 0.00 0.00 0.00 39 1017.7
20260906012532 91 263 1.0 5.0 0.00 0.00 0.00 35 1017.5
20260906012528 91 284 1.0 5.0 0.00 0.00 0.00 36 1017.5
20260906012140 91 103 1.0 4.0 0.00 0.00 0.00 35 1017.4
20260906011032 91 221 0.0 1.0 0.00 0.00 0.00 35 1017.3
20260906011028 91 216 1.0 4.0 0.00 0.00 0.00 35 1017.4
20260906010033 91 221 0.0 2.0 0.00 0.00 0.00 35 1017.2
20260906010029 91 221 0.0 1.0 0.00 0.00 0.00 35 1017.3
20260906005028 91 221 0.0 2.0 0.00 0.00 0.00 35 1017.1
20260906004528 91 221 0.0 2.0 0.00 0.00 0.00 34 1017.1
20260906004025 91 221 1.0 4.0 0.00 0.00 0.00 34 1017.1
20260906003523 91 192 1.0 4.0 0.00 0.00 0.00 34 1017.2
20260906003024 91 183 2.0 4.0 0.00 0.00 0.00 34 1017.1
20260906002523 91 307 3.0 5.0 0.00 0.00 0.00 34 1017.1
20260906002519 91 327 2.0 5.0 0.00 0.00 0.00 34 1017.1
20260906001516 92 304 1.0 4.0 0.00 0.00 0.00 34 1017.2
20260906001014 92 350 1.0 4.0 0.00 0.00 0.00 33 1017.1
20260906000513 93 315 1.0 4.0 0.00 0.00 0.00 33 1017.1
20260906000011 93 224 1.0 4.0 0.00 0.00 0.00 32 1017.2
20260905235515 95 5 2.0 7.0 0.00 0.00 0.00 31 1017.0
20260905235510 94 232 1.0 3.0 0.00 0.00 0.00 32 1017.1
20260905234511 95 170 2.0 8.0 0.00 0.00 0.00 29 1016.6
20260905234507 95 230 3.0 8.0 0.00 0.00 0.00 30 1016.9
20260905233511 96 13 2.0 8.0 0.00 0.00 0.00 29 1016.4
20260905233506 95 107 3.0 8.0 0.00 0.00 0.00 29 1016.4
20260905232504 96 154 3.0 8.0 0.00 0.00 0.00 29 1016.4
20260905232004 96 177 3.0 8.0 0.00 0.00 0.00 29 1016.3
20260905231504 97 90 3.0 9.0 0.00 0.00 0.00 29 1016.3
20260905231005 97 148 3.0 9.0 0.00 0.00 0.00 28 1016.3
20260905230505 98 78 2.0 8.0 0.00 0.00 0.00 28 1016.3
20260905230002 97 110 3.0 9.0 0.00 0.00 0.00 27 1016.3
20260905225503 98 193 4.0 10.0 0.00 0.00 0.00 27 1016.4
20260905225004 98 219 3.0 10.0 0.00 0.00 0.00 27 1016.3
20260905224458 98 120 3.0 10.0 0.00 0.00 0.00 27 1016.2
20260905223958 98 135 2.0 10.0 0.00 0.00 0.00 27 1016.2
20260905223500 98 297 2.0 7.0 0.00 0.00 0.00 27 1016.3
20260905222958 98 159 2.0 9.0 0.00 0.00 0.00 26 1016.4
20260905222457 98 187 3.0 9.0 0.00 0.00 0.00 27 1016.3
20260905221956 97 161 2.0 8.0 0.00 0.00 0.00 28 1016.4
20260905221456 97 187 3.0 9.0 0.00 0.00 0.00 29 1016.5
20260905220959 97 164 3.0 13.0 0.00 0.00 0.00 28 1016.4
20260905220954 97 137 3.0 9.0 0.00 0.00 0.00 29 1016.5
20260905215954 96 238 4.0 13.0 0.00 0.00 0.00 29 1016.5
20260905215454 97 172 4.0 12.0 0.00 0.00 0.00 27 1016.6
20260905214954 98 96 3.0 12.0 0.00 0.00 0.00 27 1016.6
20260905214459 99 225 3.0 10.0 0.00 0.00 0.00 27 1016.6
20260905214454 99 223 2.0 8.0 0.00 0.00 0.00 27 1016.6
20260905214106 98 90 3.0 10.0 0.00 0.00 0.00 27 1016.8
20260905212954 98 169 3.0 12.0 0.00 0.00 0.00 28 1016.8
20260905212458 99 132 3.0 9.0 0.00 0.00 0.00 28 1016.9
20260905212454 99 104 3.0 12.0 0.00 0.00 0.00 28 1016.9